OK2ARM-6 Weather Reports


Display with metric or nautical units.
time (UTC)temp
F
wind
direction
speed
MPH
gust
MPH
rain 1hr
in
rain 24hr
in
rain mn
in
humidity
%
barometer
mb
20260505094454 70 0.0 0.0 0.00 0.00 0.00 100 1009.1
20260505092230 66 0.0 0.0 0.00 0.00 0.00 100 1009.1
20260505091230 65 0.0 0.0 0.00 0.00 0.00 100 1009.2
20260505090230 65 0.0 0.0 0.00 0.00 0.00 100 1009.2
20260505084005 64 0.0 0.0 0.00 0.00 0.00 100 1009.3
20260505083005 63 0.0 0.0 0.00 0.00 0.00 100 1009.4
20260505082005 63 0.0 0.0 0.00 0.00 0.00 100 1009.3
20260505081005 62 0.0 0.0 0.00 0.00 0.00 100 1009.5
20260505080005 62 0.0 0.0 0.00 0.00 0.00 100 1009.6
20260505075006 62 0.0 0.0 0.00 0.00 0.00 100 1009.5
20260505074005 61 0.0 0.0 0.00 0.00 0.00 100 1009.6
20260505073006 60 0.0 0.0 0.00 0.00 0.00 100 1009.6
20260505072006 60 0.0 0.0 0.00 0.00 0.00 100 1009.6
20260505071006 60 0.0 0.0 0.00 0.00 0.00 100 1009.6
20260505070006 59 0.0 0.0 0.00 0.00 0.00 100 1009.7
20260505065005 59 0.0 0.0 0.00 0.00 0.00 100 1009.9
20260505064005 58 0.0 0.0 0.00 0.00 0.00 100 1010.0
20260505063005 58 0.0 0.0 0.00 0.00 0.00 100 1010.0
20260505062006 56 0.0 0.0 0.00 0.00 0.00 100 1009.9
20260505061005 54 0.0 0.0 0.00 0.00 0.00 100 1010.0
20260505060006 53 0.0 0.0 0.00 0.00 0.00 100 1010.0
20260505055006 52 0.0 0.0 0.00 0.00 0.00 100 1010.0
20260505054005 51 0.0 0.0 0.00 0.00 0.00 100 1010.0
20260505053006 49 0.0 0.0 0.00 0.00 0.00 100 1009.9
20260505050742 46 0.0 0.0 0.00 0.00 0.00 100 1009.9
20260505041742 44 0.0 0.0 0.00 0.00 0.00 100 1009.8
20260505040742 44 0.0 0.0 0.00 0.00 0.00 100 1009.7
20260505035742 44 0.0 0.0 0.00 0.00 0.00 100 1009.7
20260505033516 44 0.0 0.0 0.00 0.00 0.00 100 1009.8
20260505031252 45 0.0 0.0 0.00 0.00 0.00 100 1010.1
20260505030252 45 0.0 0.0 0.00 0.00 0.00 100 1010.2
20260505025253 45 0.0 0.0 0.00 0.00 0.00 100 1010.3
20260505023027 46 0.0 0.0 0.00 0.00 0.00 100 1010.6
20260505022026 46 0.0 0.0 0.00 0.00 0.00 100 1010.6
20260505021027 47 0.0 0.0 0.00 0.00 0.00 100 1010.8
20260505020026 47 0.0 0.0 0.00 0.00 0.00 100 1010.9
20260505015027 47 0.0 0.0 0.00 0.00 0.00 100 1010.9
20260505010316 47 0.0 0.0 0.00 0.00 0.00 100 1010.8
20260505005316 48 0.0 0.0 0.00 0.00 0.00 100 1010.9
20260505004316 48 0.0 0.0 0.00 0.00 0.00 100 1011.0
20260505003316 48 0.0 0.0 0.00 0.00 0.00 100 1011.1
20260505002316 48 0.0 0.0 0.00 0.00 0.00 100 1011.1
20260505001316 49 0.0 0.0 0.00 0.00 0.00 100 1011.3
20260505000316 49 0.0 0.0 0.00 0.00 0.00 100 1011.3
20260504234052 49 0.0 0.0 0.00 0.00 0.00 100 1011.6
20260504233052 50 0.0 0.0 0.00 0.00 0.00 100 1011.7
20260504232052 50 0.0 0.0 0.00 0.00 0.00 100 1011.8
20260504231052 50 0.0 0.0 0.00 0.00 0.00 100 1011.8
20260504230052 51 0.0 0.0 0.00 0.00 0.00 100 1011.8
20260504225053 51 0.0 0.0 0.00 0.00 0.00 100 1012.0
20260504224052 51 0.0 0.0 0.00 0.00 0.00 100 1012.1
20260504223052 52 0.0 0.0 0.00 0.00 0.00 100 1012.2
20260504222053 52 0.0 0.0 0.00 0.00 0.00 100 1012.2
20260504214605 54 0.0 0.0 0.00 0.00 0.00 100 1012.4
20260504213605 54 0.0 0.0 0.00 0.00 0.00 100 1012.5
20260504212605 55 0.0 0.0 0.00 0.00 0.00 100 1012.6
20260504211605 55 0.0 0.0 0.00 0.00 0.00 100 1012.6
20260504204118 58 0.0 0.0 0.00 0.00 0.00 100 1012.8
20260504203118 59 0.0 0.0 0.00 0.00 0.00 100 1012.8
20260504202118 60 0.0 0.0 0.00 0.00 0.00 100 1012.8
20260504201118 60 0.0 0.0 0.00 0.00 0.00 100 1012.9
20260504200118 61 0.0 0.0 0.00 0.00 0.00 100 1013.0
20260504193854 62 0.0 0.0 0.00 0.00 0.00 1013.0
20260504190408 64 0.0 0.0 0.00 0.00 0.00 100 1013.0
20260504185407 64 0.0 0.0 0.00 0.00 0.00 100 1013.0
20260504184407 66 0.0 0.0 0.00 0.00 0.00 100 1012.8
20260504182144 68 0.0 0.0 0.00 0.00 0.00 100 1012.8
20260504175920 70 0.0 0.0 0.00 0.00 0.00 100 1012.6
20260504174920 71 0.0 0.0 0.00 0.00 0.00 100 1012.6
20260504173920 71 0.0 0.0 0.00 0.00 0.00 100 1012.7
20260504172921 72 0.0 0.0 0.00 0.00 0.00 100 1012.6
20260504171919 73 0.0 0.0 0.00 0.00 0.00 100 1012.7
20260504170920 73 0.0 0.0 0.00 0.00 0.00 100 1012.7
20260504150207 81 0.0 0.0 0.00 0.00 0.00 100 1012.9
20260504141207 82 0.0 0.0 0.00 0.00 0.00 100 1013.4
20260504140206 82 0.0 0.0 0.00 0.00 0.00 100 1013.7
20260504110232 74 0.0 0.0 0.00 0.00 0.00 100 1015.2
20260504100231 69 0.0 0.0 0.00 0.00 0.00 100 1015.8